Home > Weather > Downey > Past weeks

Flag for U.S.A. Weather for the Past 2 Weeks in Downey, California, U.S.A.

Now
63 °F

Clear.


Feels Like: 63 °F
Forecast: 54 / 87 °F
Wind: No wind

Location: Long Beach Airport

Current Time: Feb 9, 2016 at 11:59:46 PM

Latest Report: Feb 9, 2016 at 10:53 PM


Visibility: 10 mi

Pressure: 30.10 "Hg

Humidity: 52%

Dew point: 45 °F

Location of DowneyLocation

Historic Weather in Downey — Graph

°F

Downey Temperature Yesterday

Maximum temperature yesterday: 87 °F (at 12:53 PM)
Minimum temperature yesterday: 52 °F (at 6:53 AM)
Average temperature yesterday: 71 °F

High & Low Weather Summary for the Past Weeks

 TemperatureHumidityPressure
High91 °F (Feb 9, 1:53 PM)100% (Jan 29, 10:53 PM)30.36 "Hg (Jan 29, 10:53 PM)
Low40 °F (Feb 2, 5:53 AM)12% (Feb 6, 2:53 PM)29.63 "Hg (Jan 31, 1:53 PM)
Average59 °F49%30.13 "Hg
* Reported Jan 25 10:53 PM — Feb 9 10:53 PM, Downey, Weather by CustomWeather, © 2016

Note: Actual official high and low records may vary slightly from our data, if they occured in-between our weather recording intervals... More about our weather records

Advertising

Downey Weather History for the Previous 24 Hours

 ConditionsComfort  
Time TempWeatherWind HumidityBarometerVisibility
10:53 PM
Tue, Feb 9
63 °FClear.No wind52%30.10 "Hg10 mi
9:53 PM65 °FClear.5 mph47%30.10 "Hg10 mi
8:53 PM67 °FClear.3 mph39%30.10 "Hg10 mi
7:53 PM71 °FClear.12 mph28%30.09 "Hg10 mi
6:53 PM72 °FClear.No wind28%30.06 "Hg10 mi
5:53 PM77 °FClear.6 mph21%30.06 "Hg10 mi
4:53 PM82 °FSunny.12 mph18%30.06 "Hg10 mi
3:53 PM90 °FSunny.5 mph13%30.04 "Hg10 mi
2:53 PM91 °FSunny.5 mph12%30.04 "Hg10 mi
1:53 PM91 °FSunny.3 mph13%30.05 "Hg8 mi
12:53 PM89 °FSunny.3 mph14%30.07 "Hg10 mi
11:53 AM87 °FSunny.7 mph15%30.11 "Hg10 mi
10:53 AM83 °FSunny.5 mph16%30.14 "Hg10 mi
9:53 AM76 °FSunny.6 mph23%30.16 "Hg10 mi
8:53 AM68 °FSunny.7 mph30%30.16 "Hg10 mi
7:53 AM60 °FSunny.6 mph39%30.14 "Hg10 mi
6:53 AM58 °FSunny.7 mph36%30.13 "Hg10 mi
5:53 AM58 °FClear.5 mph38%30.11 "Hg10 mi
4:53 AM57 °FClear.3 mph39%30.10 "Hg10 mi
3:53 AM57 °FClear.5 mph41%30.10 "Hg10 mi
2:53 AM60 °FClear.6 mph35%30.11 "Hg10 mi
1:53 AM60 °FClear.5 mph38%30.11 "Hg10 mi
12:53 AM62 °FClear.5 mph37%30.11 "Hg10 mi
11:53 PM
Mon, Feb 8
63 °FClear.5 mph37%30.12 "Hg10 mi
Weather by CustomWeather, © 2016

See weather overviewHow to use our weather pages